This is the latest recevied weather packets stored in our database for station/object KD5HIA. If no packets are shown the sender has not sent any weather packets the latest 10 day(s).
| Time | Temp. | Humidity | Pressure | Rain* | Wind** | Luminosity | Snow |
|---|---|---|---|---|---|---|---|
| 1778090417 | 15.56° C | 74% | 1014.3 hPa | 0 mm | - | 337 W/m² | - |
| 1778089816 | 16.11° C | 73% | 1014.6 hPa | 0 mm | - | 337 W/m² | - |
| 1778089216 | 15.56° C | 73% | 1014.6 hPa | 0 mm | - | 451 W/m² | - |
| 1778088616 | 15.56° C | 73% | 1014.8 hPa | 0 mm | - | 353 W/m² | - |
| 1778088017 | 15.56° C | 74% | 1014.8 hPa | 0 mm | - | 361 W/m² | - |
| 1778087416 | 15.56° C | 74% | 1014.6 hPa | 0 mm | - | 459 W/m² | - |
| 1778086817 | 15.56° C | 75% | 1014.5 hPa | 0 mm | - | 450 W/m² | - |
| 1778086216 | 15° C | 76% | 1014.4 hPa | 0 mm | - | 455 W/m² | - |
| 1778085616 | 14.44° C | 78% | 1014.5 hPa | 0 mm | - | 268 W/m² | - |
| 1778085017 | 14.44° C | 78% | 1014.4 hPa | 0 mm | - | 240 W/m² | - |
| 1778084416 | 13.89° C | 78% | 1014.1 hPa | 0 mm | - | 260 W/m² | - |
| 1778083816 | 13.89° C | 78% | 1014.1 hPa | 0 mm | - | 234 W/m² | - |
| 1778083217 | 13.89° C | 79% | 1014 hPa | 0 mm | - | 191 W/m² | - |
| 1778082616 | 13.33° C | 79% | 1014 hPa | 0 mm | - | 208 W/m² | - |
| 1778082017 | 13.89° C | 80% | 1013.9 hPa | 0 mm | - | 160 W/m² | - |
| 1778081416 | 13.89° C | 80% | 1013.9 hPa | 0 mm | - | 160 W/m² | - |
| 1778080817 | 13.33° C | 82% | 1013.8 hPa | 0 mm | - | 188 W/m² | - |
| 1778080216 | 12.78° C | 83% | 1013.7 hPa | 0 mm | - | 106 W/m² | - |
| 1778079616 | 12.78° C | 84% | 1013.2 hPa | 0 mm | - | 137 W/m² | - |
| 1778079017 | 12.78° C | 85% | 1013.1 hPa | 0 mm | - | 125 W/m² | - |
| 1778078416 | 12.22° C | 85% | 1013.7 hPa | 0 mm | - | 82 W/m² | - |
| 1778077816 | 12.22° C | 86% | 1013.3 hPa | 0 mm | - | 85 W/m² | - |
| 1778077216 | 12.22° C | 87% | 1013.1 hPa | 0 mm | - | 69 W/m² | - |
| 1778076616 | 11.67° C | 88% | 1012.8 hPa | 0 mm | - | 53 W/m² | - |
| 1778076016 | 11.67° C | 88% | 1012.7 hPa | 0 mm | - | 72 W/m² | - |
* Rain latest hour (hover to see other rain measurements)
** Current wind speed in m/s (hover to see current wind gust speed)